Bloomington, IN

5:22 PM EDT on July 25, 2016 (GMT -0400)
Monroe County

Weather History for KBMG - July, 2012

Change the Weather History Date:

Sunday, July 8, 2012

  Actual Average Record
Temperature  
Mean Temperature 83 °F 74 °F  
Max Temperature 95 °F 84 °F 95 °F (2012)
Min Temperature 71 °F 64 °F 55 °F (2006)
Degree Days  
Heating Degree Days 0 0  
Month to date heating degree days 0 0  
Since 1 June heating degree days 22 15  
Since 1 July heating degree days 0 0  
Cooling Degree Days 18 9  
Month to date cooling degree days 159 72  
Year to date cooling degree days 608 362  
Since 1 June cooling degree days 407 280  
Growing Degree Days 33 (Base 50)    
Moisture  
Dew Point 70 °F    
Average Humidity 70    
Maximum Humidity 93    
Minimum Humidity 46    
Precipitation  
Precipitation 0.27 in 0.18 in 1.02 in (2001)
Month to date precipitation 0.73 1.26  
Year to date precipitation 12.68 26.04  
Sea Level Pressure  
Sea Level Pressure 29.95 in    
Wind  
Wind Speed 3 mph (NW)    
Max Wind Speed 23 mph    
Max Gust Speed 33 mph    
Visibility 9 miles    
Events Rain , Thunderstorm    
T = Trace of Precipitation, MM = Missing Value Source: NWS Daily Summary

Daily Weather History Graph

Daily Weather History Graph

Search for Another Location

Airport or City:

Trip Planner

Search our weather history database for the weather conditions in past years. The results will help you decide how hot, cold, wet, or windy it might be!

Date:

Astronomy

Jul. 08, 2012 Rise Set
Actual Time 6:28 AM EDT 9:14 PM EDT
Civil Twilight 5:56 AM EDT 9:46 PM EDT
Nautical Twilight 5:16 AM EDT 10:26 PM EDT
Astronomical Twilight 4:31 AM EDT 11:11 PM EDT
Moon No Moon Rise 11:52 AM EDT (7/8)
Length of Visible Light 15h 49m
Length of Day
14h 46m
Waning Gibbous, 73% of the Moon is Illuminated
Jul 8
Waning Gibbous
Jul 10
Last Quarter
Jul 19
New
Jul 26
First Quarter
Aug 1
Full

Hourly Weather History & Observations

Time (EDT) Temp. Heat Index Dew Point Humidity Pressure Visibility Wind Dir Wind Speed Gust Speed Precip Events Conditions
12:53 AM 78.1 °F - 73.0 °F 84% 29.94 in 10.0 mi West 3.5 mph - N/A   Mostly Cloudy
1:53 AM 78.1 °F - 70.0 °F 76% 29.92 in 10.0 mi SSW 4.6 mph - 0.00 in   Clear
2:53 AM 79.0 °F - 70.0 °F 74% 29.91 in 10.0 mi Calm Calm - N/A   Clear
3:53 AM 77.0 °F - 73.0 °F 88% 29.89 in 10.0 mi Calm Calm - N/A   Clear
4:53 AM 79.0 °F - 69.1 °F 72% 29.91 in 10.0 mi Calm Calm - N/A   Clear
5:53 AM 75.0 °F - 71.1 °F 87% 29.92 in 10.0 mi Calm Calm - N/A   Clear
6:53 AM 75.0 °F - 71.1 °F 87% 29.93 in 10.0 mi Calm Calm - N/A   Clear
7:53 AM 78.1 °F - 71.1 °F 79% 29.95 in 10.0 mi Calm Calm - N/A   Clear
8:53 AM 82.0 °F 86.3 °F 71.1 °F 69% 29.95 in 10.0 mi Calm Calm - N/A   Clear
9:53 AM 86.0 °F 93.0 °F 73.0 °F 65% 29.94 in 10.0 mi Variable 3.5 mph - N/A   Clear
10:53 AM 90.0 °F 97.9 °F 73.0 °F 57% 29.94 in 10.0 mi Calm Calm - N/A   Clear
11:53 AM 95.0 °F 102.5 °F 71.1 °F 46% 29.94 in 10.0 mi Calm Calm - N/A   Clear
12:53 PM 90.0 °F 97.9 °F 73.0 °F 57% 29.94 in 10.0 mi North 6.9 mph - N/A   Overcast
1:02 PM 89.6 °F 98.2 °F 73.4 °F 59% 29.97 in 10.0 mi North 6.9 mph - N/A Thunderstorm Thunderstorm
1:53 PM 89.1 °F 98.0 °F 73.9 °F 61% 29.94 in 10.0 mi Calm Calm - N/A Thunderstorm Thunderstorm
2:53 PM 78.1 °F - 66.0 °F 66% 29.92 in 10.0 mi SE 3.5 mph - N/A Thunderstorm Scattered Clouds
3:00 PM 78.8 °F - 66.2 °F 65% 29.95 in 10.0 mi SSE 3.5 mph - N/A   Mostly Cloudy
3:25 PM 77.0 °F - 66.2 °F 69% 29.95 in 10.0 mi ESE 6.9 mph - N/A Thunderstorm Thunderstorm
3:40 PM 73.4 °F - 66.2 °F 78% 29.96 in 2.0 mi SE 15.0 mph 33.4 mph 0.07 in Rain , Thunderstorm Light Thunderstorms and Rain
3:47 PM 73.4 °F - 68.0 °F 83% 29.97 in 7.0 mi SSE 16.1 mph 24.2 mph 0.07 in Rain , Thunderstorm Light Thunderstorms and Rain
3:53 PM 72.0 °F - 66.0 °F 81% 29.96 in 10.0 mi SSE 9.2 mph 24.2 mph 0.07 in Rain , Thunderstorm Light Thunderstorms and Rain
4:26 PM 71.6 °F - 69.8 °F 94% 30.04 in 2.0 mi SW 12.7 mph 21.9 mph 0.02 in Rain , Thunderstorm Light Thunderstorms and Rain
4:43 PM 71.6 °F - 69.8 °F 94% 30.01 in 1.8 mi SSW 12.7 mph - 0.16 in Rain , Thunderstorm Thunderstorms and Rain
4:47 PM 71.6 °F - 69.8 °F 94% 29.99 in 3.0 mi South 11.5 mph 20.7 mph 0.16 in Rain , Thunderstorm Light Thunderstorms and Rain
4:53 PM 71.1 °F - 69.1 °F 93% 29.96 in 6.0 mi SE 5.8 mph - 0.17 in Rain , Thunderstorm Thunderstorms and Rain
5:12 PM 71.6 °F - 69.8 °F 94% 29.96 in 9.0 mi North 3.5 mph - 0.02 in Rain Light Rain
5:53 PM 72.0 °F - 70.0 °F 93% 29.94 in 8.0 mi Calm Calm - 0.02 in   Clear
6:28 PM 71.6 °F - 69.8 °F 94% 29.98 in 10.0 mi West 9.2 mph - 0.00 in Rain , Thunderstorm Light Thunderstorms and Rain
6:43 PM 71.6 °F - 69.8 °F 94% 29.97 in 8.0 mi North 3.5 mph - 0.01 in Rain Light Rain
6:53 PM 72.0 °F - 70.0 °F 93% 29.95 in 7.0 mi NNW 5.8 mph - 0.01 in Rain Light Rain
7:17 PM 71.6 °F - 71.6 °F 100% 29.96 in 9.0 mi North 9.2 mph - 0.00 in   Partly Cloudy
7:31 PM 71.6 °F - 71.6 °F 100% 29.98 in 9.0 mi WNW 4.6 mph - 0.00 in Rain Light Rain
7:45 PM 73.4 °F - 71.6 °F 94% 29.98 in 10.0 mi Calm Calm - 0.00 in   Scattered Clouds
7:53 PM 73.0 °F - 71.1 °F 93% 29.96 in 10.0 mi Calm Calm - 0.00 in   Scattered Clouds
8:53 PM 73.0 °F - 71.1 °F 93% 29.93 in 9.0 mi North 6.9 mph - N/A   Clear
9:53 PM 73.0 °F - 70.0 °F 90% 29.97 in 10.0 mi North 5.8 mph - N/A   Partly Cloudy
10:53 PM 73.0 °F - 69.1 °F 87% 29.98 in 10.0 mi North 4.6 mph - N/A   Clear
11:53 PM 73.0 °F - 69.1 °F 87% 29.98 in 10.0 mi North 4.6 mph - N/A   Clear